,�O�C���x,�����t���O,�O�C���x,�����t���O,�󒲎����x,�����t���O,�󒲎����x,�����t���O,��󒲎����x,�����t���O,����,�����t���O
2004/6/1 0:00,18.2,0,99,0,25.6,0,56.7,0,25.4,0,22,0
2004/6/1 0:15,18,0,99,0,25.5,0,56.7,0,25.4,0,22,0
2004/6/1 0:30,18.1,0,99,0,25.5,0,57,0,25.3,0,22,0
2004/6/1 0:45,18,0,99,0,25.5,0,57.1,0,25.3,0,22,0
2004/6/1 1:00,17.9,0,99,0,25.5,0,57.1,0,25.2,0,21.9,0
2004/6/1 1:15,17.8,0,99,0,25.5,0,57.8,0,25.2,0,21.8,0
2004/6/1 1:30,17.8,0,99,0,25.5,0,57.8,0,25.1,0,21.8,0
2004/6/1 1:45,17.7,0,99,0,25.5,0,57.9,0,25.1,0,21.8,0
2004/6/1 2:00,17.4,0,99,0,25.5,0,57.8,0,25,0,21.8,0
2004/6/1 2:15,17.5,0,99,0,25.4,0,57.9,0,25,0,21.8,0
2004/6/1 2:30,17.5,0,99,0,25.3,0,58,0,24.9,0,21.8,0
2004/6/1 2:45,17.2,0,99,0,25.2,0,58.1,0,24.9,0,21.8,0
2004/6/1 3:00,17,0,99,0,25.2,0,58,0,24.9,0,21.9,0
2004/6/1 3:15,16.9,0,99,0,25.1,0,58,0,24.8,0,21.9,0
2004/6/1 3:30,16.9,0,99,0,25.1,0,58,0,24.8,0,21.9,0
2004/6/1 3:45,16.7,0,99,0,25,0,58,0,24.7,0,21.9,0
2004/6/1 4:00,16.5,0,99,0,24.9,0,58,0,24.7,0,21.9,0
2004/6/1 4:15,16.5,0,99,0,24.9,0,58,0,24.7,0,21.9,0
2004/6/1 4:30,16.3,0,99,0,24.9,0,57.9,0,24.6,0,21.9,0
2004/6/1 4:45,16.2,0,99,0,24.8,0,57.9,0,24.6,0,21.9,0
2004/6/1 5:00,16,0,99,0,24.8,0,57.8,0,24.5,0,21.9,0
2004/6/1 5:15,15.7,0,99,0,24.7,0,57.8,0,24.4,0,21.9,0
2004/6/1 5:30,15.7,0,99,0,24.6,0,57.7,0,24.4,0,21.9,0
2004/6/1 5:45,15.6,0,98,0,24.6,0,57.6,0,24.4,0,21.9,0
2004/6/1 6:00,15.7,0,98,0,24.5,0,57.4,0,24.3,0,21.9,0
2004/6/1 6:15,15.9,0,97,0,24.5,0,57.3,0,24.3,0,21.9,0
2004/6/1 6:30,16.2,0,96,0,24.5,0,57.2,0,24.2,0,21.9,0
2004/6/1 6:45,16.5,0,95,0,24.5,0,57,0,24.2,0,21.9,0
2004/6/1 7:00,17.1,0,95,0,24.5,0,56.9,0,24.2,0,21.9,0
2004/6/1 7:15,17.6,0,95,0,24.5,0,56.7,0,24.2,0,21.9,0
2004/6/1 7:30,18.4,0,95,0,24.6,0,56.5,0,24.2,0,21.9,0
2004/6/1 7:45,19,0,90,0,24.6,0,56.4,0,24.2,0,21.7,0
2004/6/1 8:00,19.7,0,85,0,24.7,0,56.3,0,24.2,0,21.4,0
2004/6/1 8:15,20.2,0,81,0,24.7,0,56.2,0,24.3,0,21.4,0
2004/6/1 8:30,20.8,0,78,0,24.8,0,56.8,0,24.3,0,21.4,0
2004/6/1 8:45,21,0,71,0,24.8,0,56.4,0,24.4,0,21.4,0
2004/6/1 9:00,21.3,0,67,0,24.9,0,56.4,0,24.4,0,21.4,0
2004/6/1 9:15,21.8,0,62,0,24.9,0,56.2,0,24.4,0,21.4,0
2004/6/1 9:30,22.4,0,59,0,24.9,0,55.9,0,24.5,0,21.4,0
2004/6/1 9:45,22.3,0,52,0,25,0,55.8,0,24.6,0,21.4,0
2004/6/1 10:00,22.8,0,53,0,24.9,0,55.6,0,24.6,0,21.5,0
2004/6/1 10:15,22.7,0,52,0,25,0,55.3,0,24.7,0,21.5,0
2004/6/1 10:30,22.9,0,53,0,25,0,55.1,0,24.8,0,21.5,0
2004/6/1 10:45,23.3,0,52,0,25,0,54.9,0,24.8,0,21.5,0
2004/6/1 11:00,23.3,0,58,0,25,0,54.9,0,24.9,0,21.5,0
2004/6/1 11:15,23.6,0,57,0,25,0,54.8,0,24.9,0,21.5,0
2004/6/1 11:30,24.4,0,54,0,25.1,0,54.8,0,25,0,21.5,0
2004/6/1 11:45,24.6,0,54,0,25.1,0,54.9,0,25.1,0,21.5,0
2004/6/1 12:00,24.6,0,54,0,25.1,0,54.9,0,25.2,0,21.1,0
2004/6/1 12:15,24.4,0,49,0,25.2,0,54.6,0,25.3,0,21.2,0
2004/6/1 12:30,25,0,45,0,25.2,0,53.8,0,25.4,0,21.2,0
2004/6/1 12:45,24.8,0,49,0,25.3,0,51.8,0,25.4,0,21.2,0
2004/6/1 13:00,26,0,44,0,25.3,0,50.6,0,25.4,0,21.2,0
2004/6/1 13:15,25.7,0,44,0,25.4,0,50.8,0,25.5,0,21.2,0
2004/6/1 13:30,26.3,0,45,0,25.4,0,50.1,0,25.5,0,21.5,0
2004/6/1 13:45,26.8,0,42,0,25.4,0,49.5,0,25.6,0,21.5,0
2004/6/1 14:00,27.7,0,40,0,25.5,0,49.4,0,25.6,0,21.5,0
2004/6/1 14:15,28.6,0,39,0,25.6,0,49.1,0,25.7,0,21.5,0
2004/6/1 14:30,28,0,40,0,25.7,0,49.2,0,25.7,0,21.5,0
2004/6/1 14:45,29.3,0,39,0,25.7,0,49.3,0,25.7,0,21.6,0
2004/6/1 15:00,28.3,0,43,0,25.8,0,49.6,0,25.7,0,21.6,0
2004/6/1 15:15,29.1,0,41,0,25.9,0,50.1,0,25.7,0,21.6,0
2004/6/1 15:30,27.1,0,45,0,26,0,50.4,0,25.9,0,21.6,0
2004/6/1 15:45,29,0,43,0,26,0,50.6,0,25.9,0,21.6,0
2004/6/1 16:00,28.3,0,42,0,26.1,0,50.1,0,26,0,21.7,0
2004/6/1 16:15,28,0,43,0,26.2,0,49.9,0,26.2,0,21.7,0
2004/6/1 16:30,27.5,0,45,0,26.2,0,49.7,0,26.5,0,21.5,0
2004/6/1 16:45,28.2,0,43,0,26.3,0,49.6,0,26.6,0,21.7,0
2004/6/1 17:00,28.7,0,42,0,26.4,0,49.6,0,26.8,0,21.8,0
2004/6/1 17:15,27,0,44,0,26.4,0,49.5,0,26.9,0,21.8,0
2004/6/1 17:30,26.5,0,45,0,26.4,0,49.2,0,26.9,0,21.8,0
2004/6/1 17:45,26.3,0,45,0,26.4,0,48.4,0,26.9,0,21.8,0
2004/6/1 18:00,25.9,0,45,0,26.3,0,47.4,0,27,0,21.9,0
2004/6/1 18:15,25,0,49,0,26.3,0,47.3,0,27,0,21.8,0
2004/6/1 18:30,24,0,54,0,26.2,0,47.4,0,26.9,0,21.8,0
2004/6/1 18:45,23.2,0,53,0,26.1,0,48.2,0,26.5,0,21.7,0
2004/6/1 19:00,23,0,53,0,25.9,0,47,0,26.2,0,21.7,0
2004/6/1 19:15,22.6,0,58,0,25.8,0,46.6,0,26,0,21.7,0
2004/6/1 19:30,22.2,0,60,0,25.7,0,48.2,0,25.7,0,21.8,0
2004/6/1 19:45,21.8,0,61,0,25.7,0,48.9,0,25.6,0,21.8,0
2004/6/1 20:00,21.6,0,63,0,25.9,0,49.1,0,25.7,0,21.8,0
2004/6/1 20:15,21.5,0,64,0,25.8,0,48.6,0,25.5,0,21.8,0
2004/6/1 20:30,21.3,0,65,0,25.8,0,48.9,0,25.7,0,21.9,0
2004/6/1 20:45,21.1,0,67,0,25.9,0,48.9,0,25.9,0,21.9,0
2004/6/1 21:00,20.9,0,67,0,25.8,0,49.4,0,25.9,0,21.9,0
2004/6/1 21:15,20.5,0,68,0,25.7,0,49.3,0,25.9,0,21.9,0
2004/6/1 21:30,20,0,72,0,25.7,0,49,0,25.8,0,21.9,0
2004/6/1 21:45,19.8,0,73,0,25.8,0,49.3,0,25.7,0,21.7,0
2004/6/1 22:00,19.5,0,73,0,25.7,0,49.3,0,25.6,0,21.7,0
2004/6/1 22:15,19.1,0,74,0,25.6,0,49.1,0,25.5,0,21.7,0
2004/6/1 22:30,18.9,0,75,0,25.6,0,48.9,0,25.5,0,21.7,0
2004/6/1 22:45,18.7,0,74,0,25.5,0,48.5,0,25.3,0,21.7,0
2004/6/1 23:00,18.3,0,75,0,25.5,0,48.2,0,25.3,0,21.7,0
2004/6/1 23:15,18.1,0,75,0,25.4,0,49.7,0,25.2,0,21.5,0
2004/6/1 23:30,17.7,0,76,0,25.4,0,49,0,24.9,0,21.5,0
2004/6/1 23:45,17.6,0,74,0,25.3,0,48.9,0,24.8,0,21.5,0
2004/6/2 0:00,17.7,0,70,0,25.3,0,48.2,0,24.6,0,21.5,0
2004/6/2 0:15,17.7,0,68,0,25.2,0,47.8,0,24.4,0,21.5,0
2004/6/2 0:30,17.5,0,69,0,25.1,0,49.6,0,24.5,0,21.5,0
2004/6/2 0:45,17.2,0,72,0,25,0,49.5,0,24.5,0,21.5,0
2004/6/2 0:59,17.2,0,71,0,24.9,0,49.7,0,24.5,0,21.5,0
2004/6/2 1:14,17,0,70,0,24.9,0,49.7,0,24.5,0,21.4,0
2004/6/2 1:29,17,0,72,0,24.9,0,49.8,0,24.4,0,21.4,0
2004/6/2 1:44,16.9,0,72,0,24.8,0,50,0,24.4,0,21.5,0
2004/6/2 1:59,16.9,0,74,0,24.7,0,50.2,0,24.4,0,21.5,0
2004/6/2 2:14,16.8,0,74,0,24.7,0,50.1,0,24.3,0,21.5,0
2004/6/2 2:29,16.7,0,75,0,24.7,0,50.1,0,24.3,0,21.4,0
2004/6/2 2:44,16.6,0,75,0,24.6,0,50.5,0,24.2,0,21.4,0
2004/6/2 2:59,16.5,0,76,0,24.6,0,50.6,0,24.2,0,21.3,0
2004/6/2 3:14,16.3,0,79,0,24.6,0,50.5,0,24.2,0,21.4,0
2004/6/2 3:29,16.4,0,80,0,24.5,0,50.5,0,24.1,0,21.4,0
2004/6/2 3:44,16.4,0,79,0,24.4,0,50.5,0,24.1,0,21.4,0
2004/6/2 3:59,16.5,0,79,0,24.4,0,50.5,0,24,0,21.4,0
2004/6/2 4:14,16.4,0,80,0,24.3,0,50.5,0,24,0,21.4,0
2004/6/2 4:29,16.4,0,79,0,24.2,0,50.6,0,23.9,0,21.4,0
2004/6/2 4:44,16.3,0,81,0,24.2,0,50.7,0,23.9,0,21.4,0
2004/6/2 4:59,16.5,0,82,0,24.1,0,50.7,0,23.8,0,21.4,0
2004/6/2 5:14,16.5,0,82,0,24.1,0,50.7,0,23.8,0,21.5,0
2004/6/2 5:29,16.7,0,81,0,24,0,50.9,0,23.7,0,21.5,0
2004/6/2 5:44,16.9,0,81,0,24,0,51,0,23.7,0,21.5,0
2004/6/2 5:59,17.3,0,80,0,24,0,50.9,0,23.6,0,21.5,0
2004/6/2 6:14,17.8,0,77,0,23.9,0,51.1,0,23.6,0,21.5,0
2004/6/2 6:29,18.2,0,76,0,23.9,0,51.1,0,23.5,0,21.5,0
2004/6/2 6:44,18.8,0,74,0,23.9,0,51.2,0,23.5,0,21.5,0
2004/6/2 6:59,19.6,0,70,0,23.9,0,51.3,0,23.5,0,21.1,0
2004/6/2 7:14,20.6,0,62,0,23.9,0,51.4,0,23.5,0,21.1,0
2004/6/2 7:29,21.1,0,60,0,23.9,0,51.7,0,23.5,0,21.1,0
2004/6/2 7:44,21.6,0,59,0,24,0,51.5,0,23.5,0,21.1,0
2004/6/2 7:59,22.1,0,58,0,24,0,51.8,0,23.5,0,21.1,0
2004/6/2 8:14,22.3,0,54,0,24,0,51.7,0,23.5,0,21.2,0
2004/6/2 8:29,22.8,0,53,0,24,0,51.8,0,23.5,0,21.2,0
2004/6/2 8:44,23.2,0,51,0,24.1,0,51.7,0,23.5,0,21.2,0
2004/6/2 8:59,23.9,0,49,0,24.1,0,51.6,0,23.6,0,21.2,0
2004/6/2 9:14,24.6,0,46,0,24.2,0,51.4,0,23.6,0,21.2,0
2004/6/2 9:29,25,0,45,0,24.2,0,51.3,0,23.7,0,21.2,0
2004/6/2 9:44,25,0,45,0,24.3,0,51.3,0,23.8,0,21.2,0
2004/6/2 9:59,25.4,0,44,0,24.3,0,51.3,0,23.9,0,21.2,0
2004/6/2 10:14,25.9,0,42,0,24.4,0,51.4,0,24,0,21.2,0
2004/6/2 10:29,26.1,0,41,0,24.4,0,51.3,0,24.1,0,21.2,0
2004/6/2 10:44,25.7,0,42,0,24.5,0,51.3,0,24.2,0,21.2,0
2004/6/2 10:59,26.1,0,43,0,24.5,0,51.3,0,24.2,0,21.3,0
2004/6/2 11:14,26.5,0,40,0,24.6,0,51.2,0,24.3,0,21.3,0
2004/6/2 11:29,25.9,0,42,0,24.6,0,51.3,0,24.4,0,21.3,0
2004/6/2 11:44,26.2,0,41,0,24.6,0,51.2,0,24.5,0,21.3,0
2004/6/2 11:59,26.8,0,39,0,24.7,0,51.3,0,24.6,0,21.3,0
2004/6/2 12:14,27.4,0,38,0,24.7,0,51.2,0,24.8,0,21.3,0
2004/6/2 12:29,26.8,0,39,0,24.8,0,51.1,0,24.9,0,21.3,0
2004/6/2 12:44,27.6,0,39,0,24.8,0,51.1,0,25,0,21.3,0
2004/6/2 12:59,27.6,0,37,0,24.9,0,51.1,0,25.1,0,21.4,0
2004/6/2 13:14,27.1,0,38,0,24.9,0,51.1,0,25.2,0,21.4,0
2004/6/2 13:29,27.4,0,35,0,25,0,51,0,25.3,0,21.4,0
2004/6/2 13:44,28.2,0,31,0,25,0,50.9,0,25.4,0,21.4,0
2004/6/2 13:59,27.7,0,30,0,25.1,0,50.7,0,25.6,0,21.4,0
2004/6/2 14:14,26.7,0,32,0,25.2,0,50.7,0,25.7,0,21.4,0
2004/6/2 14:29,26.6,0,29,0,25.2,0,50.5,0,25.8,0,21.5,0
2004/6/2 14:44,26.4,0,28,0,25.2,0,50.3,0,25.9,0,21.5,0
2004/6/2 14:59,26,0,29,0,25.2,0,50.3,0,25.9,0,21.5,0
2004/6/2 15:14,25.8,0,31,0,25.2,0,50.2,0,26,0,21.5,0
2004/6/2 15:29,25.2,0,31,0,25.3,0,50.1,0,26.1,0,21.5,0
2004/6/2 15:44,25.2,0,32,0,25.3,0,50,0,26.1,0,21.6,0
2004/6/2 15:59,25.1,0,32,0,25.3,0,49.8,0,26.2,0,21.6,0
2004/6/2 16:14,24.8,0,31,0,25.3,0,49.8,0,26.2,0,21.4,0
2004/6/2 16:29,24.6,0,32,0,25.3,0,49.7,0,26.2,0,21.4,0
2004/6/2 16:44,24.8,0,31,0,25.3,0,49.5,0,26.2,0,21.4,0
2004/6/2 16:59,24.4,0,33,0,25.2,0,49.2,0,26.2,0,21.4,0
2004/6/2 17:14,24.2,0,35,0,25.2,0,48.9,0,26.2,0,21.5,0
2004/6/2 17:29,24.4,0,33,0,25.2,0,48.7,0,26.2,0,21.4,0
2004/6/2 17:44,24.4,0,34,0,25.2,0,48.6,0,26.2,0,21.4,0
2004/6/2 17:59,24.1,0,37,0,25.2,0,48.7,0,26.2,0,21.5,0
2004/6/2 18:14,23.6,0,34,0,25.2,0,48.3,0,26.2,0,21.5,0
2004/6/2 18:29,23.5,0,34,0,25.1,0,45.8,0,26.1,0,21.5,0
2004/6/2 18:44,23.3,0,37,0,25,0,43,0,26,0,21.5,0
2004/6/2 18:59,23.3,0,40,0,24.9,0,43.4,0,26,0,21.6,0
2004/6/2 19:14,22.9,0,42,0,24.9,0,44,0,25.9,0,21.6,0
2004/6/2 19:29,22.7,0,43,0,24.9,0,43.4,0,25.8,0,21.6,0
2004/6/2 19:44,22.6,0,50,0,24.9,0,43.9,0,25.8,0,21.4,0
2004/6/2 19:59,22.1,0,54,0,24.8,0,44.4,0,25.7,0,21.4,0
2004/6/2 20:14,21.6,0,57,0,24.9,0,44.6,0,25.6,0,21.5,0
2004/6/2 20:29,21.6,0,56,0,24.9,0,45.9,0,25.6,0,21.4,0
2004/6/2 20:44,21.3,0,57,0,24.9,0,46.4,0,25.5,0,21.4,0
2004/6/2 20:59,20.9,0,57,0,25,0,46.4,0,25.4,0,21.4,0
2004/6/2 21:14,20.8,0,57,0,25,0,46.6,0,25,0,21.5,0
2004/6/2 21:29,20.6,0,56,0,25,0,45.7,0,24.9,0,21.5,0
2004/6/2 21:44,20.3,0,58,0,25,0,45.3,0,24.7,0,21.5,0
2004/6/2 21:59,20,0,60,0,25,0,45.2,0,24.6,0,21.5,0
2004/6/2 22:14,19.8,0,60,0,25,0,45.4,0,24.6,0,21.5,0
2004/6/2 22:29,20,0,57,0,25,0,44.6,0,24.7,0,21.6,0
2004/6/2 22:44,20,0,57,0,24.9,0,43.9,0,24.7,0,21.6,0
2004/6/2 22:59,20,0,57,0,24.9,0,43.7,0,24.6,0,21.6,0
2004/6/2 23:14,19.6,0,59,0,24.9,0,43.4,0,24.6,0,21.3,0
2004/6/2 23:29,19.1,0,60,0,24.9,0,45.1,0,24.5,0,21.3,0
2004/6/2 23:44,18.8,0,60,0,24.9,0,45.9,0,24.4,0,21.4,0
2004/6/2 23:59,18.9,0,60,0,24.9,0,45.4,0,24.3,0,21.4,0
2004/6/3 0:14,18.7,0,61,0,24.9,0,45.3,0,24.2,0,21.4,0
2004/6/3 0:29,18.5,0,61,0,25,0,45.1,0,24.1,0,21.3,0
2004/6/3 0:44,18.4,0,63,0,24.8,0,44.7,0,24,0,21.3,0
2004/6/3 0:59,18.2,0,65,0,24.8,0,44.7,0,23.9,0,21.3,0
2004/6/3 1:14,18.2,0,65,0,24.7,0,45.3,0,23.9,0,21.3,0
2004/6/3 1:29,18.1,0,66,0,24.6,0,44.4,0,23.9,0,21.4,0
2004/6/3 1:44,17.7,0,69,0,24.5,0,45.1,0,23.8,0,21.4,0
2004/6/3 1:59,17.6,0,70,0,24.5,0,45.4,0,23.8,0,21.4,0
2004/6/3 2:14,17.1,0,73,0,24.4,0,45.7,0,23.8,0,21.4,0
2004/6/3 2:29,17.2,0,72,0,24.3,0,46,0,23.7,0,21.4,0
2004/6/3 2:44,17.2,0,74,0,24.4,0,46.4,0,23.7,0,21.4,0
2004/6/3 2:59,17,0,76,0,24.3,0,47.1,0,23.7,0,21.4,0
2004/6/3 3:14,17,0,76,0,24.2,0,47.4,0,23.7,0,21.2,0
2004/6/3 3:29,16.7,0,78,0,24.2,0,47.6,0,23.6,0,21.2,0
2004/6/3 3:44,16.8,0,79,0,24.1,0,47.8,0,23.6,0,21.2,0
2004/6/3 3:59,16.5,0,82,0,24,0,47.8,0,23.5,0,21.3,0
2004/6/3 4:14,16.4,0,82,0,24,0,47.9,0,23.5,0,21.3,0
2004/6/3 4:29,16.5,0,82,0,23.9,0,48.1,0,23.4,0,21.3,0
2004/6/3 4:44,16.5,0,82,0,23.9,0,48.3,0,23.4,0,21.3,0
2004/6/3 4:59,16.2,0,83,0,23.8,0,48.5,0,23.4,0,21.3,0
2004/6/3 5:14,16.3,0,83,0,23.8,0,48.7,0,23.3,0,21.3,0
2004/6/3 5:29,16.5,0,83,0,23.7,0,48.7,0,23.2,0,21.3,0
2004/6/3 5:44,16.7,0,81,0,23.7,0,48.9,0,23.2,0,21.3,0
2004/6/3 5:59,17.1,0,80,0,23.6,0,49,0,23.2,0,21.3,0
2004/6/3 6:14,17.7,0,78,0,23.6,0,49.2,0,23.1,0,21.4,0
2004/6/3 6:29,18.4,0,74,0,23.6,0,49.2,0,23.1,0,21.4,0
2004/6/3 6:44,18.9,0,73,0,23.7,0,49.1,0,23.1,0,21.4,0
2004/6/3 6:59,19.5,0,72,0,23.7,0,49.1,0,23.1,0,21.4,0
2004/6/3 7:14,20.2,0,67,0,23.8,0,49.1,0,23.1,0,21.4,0
2004/6/3 7:29,20.8,0,65,0,23.9,0,49.5,0,23.1,0,21.4,0
2004/6/3 7:44,21.2,0,63,0,24,0,49.7,0,23.2,0,21.4,0
2004/6/3 7:59,21.9,0,58,0,24,0,49.6,0,23.3,0,21.4,0
2004/6/3 8:14,22.3,0,56,0,24.1,0,49.6,0,23.3,0,21.4,0
2004/6/3 8:29,23.1,0,53,0,24.1,0,49.6,0,23.4,0,21.4,0
2004/6/3 8:44,23.7,0,51,0,24.2,0,49.5,0,23.5,0,21.4,0
2004/6/3 8:59,24.2,0,49,0,24.3,0,49.4,0,23.6,0,21.4,0
2004/6/3 9:14,25,0,48,0,24.4,0,49.4,0,23.7,0,21.4,0
2004/6/3 9:29,25.2,0,46,0,24.4,0,49.4,0,23.8,0,21.4,0
2004/6/3 9:44,26.3,0,44,0,24.5,0,49.5,0,23.9,0,21.4,0
2004/6/3 9:59,26.6,0,43,0,24.6,0,49.5,0,24,0,21.4,0
2004/6/3 10:14,27,0,43,0,24.6,0,49.6,0,24.2,0,21.4,0
2004/6/3 10:29,27.5,0,42,0,24.7,0,49.6,0,24.3,0,21.5,0
2004/6/3 10:44,28,0,40,0,24.7,0,49.7,0,24.4,0,21.5,0
2004/6/3 10:59,28.4,0,36,0,24.7,0,49.7,0,24.6,0,21.5,0
2004/6/3 11:14,28.7,0,36,0,24.8,0,49.8,0,24.7,0,21.2,0
2004/6/3 11:29,28.9,0,35,0,24.8,0,49.8,0,24.9,0,21.2,0
2004/6/3 11:44,29.3,0,33,0,24.9,0,49.9,0,25,0,21.2,0
2004/6/3 11:59,29.4,0,33,0,24.9,0,49.9,0,25.2,0,21.2,0
2004/6/3 12:14,29.7,0,32,0,25,0,49.8,0,25.4,0,21.2,0
2004/6/3 12:29,30,0,31,0,25.2,0,49.5,0,25.5,0,21.2,0
2004/6/3 12:44,30.1,0,32,0,25.1,0,49.7,0,25.7,0,21.3,0
2004/6/3 12:59,30.8,0,31,0,25.2,0,49.7,0,25.9,0,21.3,0
2004/6/3 13:14,31.1,0,30,0,25.3,0,49.8,0,26.1,0,21.3,0
2004/6/3 13:29,31.8,0,28,0,25.4,0,49.8,0,26.2,0,21.3,0
2004/6/3 13:44,32.1,0,28,0,25.4,0,49.8,0,26.4,0,21.3,0
2004/6/3 13:59,32.4,0,27,0,25.5,0,49.7,0,26.6,0,21.4,0
2004/6/3 14:14,33.3,0,24,0,25.6,0,49.7,0,26.7,0,21.4,0
2004/6/3 14:29,34.1,0,22,0,25.7,0,49.6,0,26.9,0,21.4,0
2004/6/3 14:44,33.5,0,23,0,25.8,0,49.6,0,27,0,21.4,0
2004/6/3 14:59,34.5,0,23,0,25.9,0,49.5,0,27.2,0,21.5,0
2004/6/3 15:14,33.2,0,24,0,26,0,49.3,0,27.3,0,21.5,0
2004/6/3 15:29,32.6,0,24,0,26.1,0,49.2,0,27.5,0,21.5,0
2004/6/3 15:44,33,0,24,0,26.2,0,49.3,0,27.6,0,21.6,0
2004/6/3 15:59,31.7,0,24,0,26.3,0,49.1,0,27.8,0,21.6,0
2004/6/3 16:14,30.6,0,23,0,26.4,0,49,0,28,0,21.6,0
2004/6/3 16:29,30.6,0,25,0,26.5,0,48.9,0,28.1,0,21.6,0
2004/6/3 16:44,30.6,0,23,0,26.6,0,48.9,0,28.3,0,21.7,0
2004/6/3 16:59,31.4,0,23,0,26.6,0,48.7,0,28.4,0,21.7,0
2004/6/3 17:14,31.3,0,23,0,26.7,0,48.6,0,28.5,0,21.8,0
2004/6/3 17:29,29.8,0,34,0,26.8,0,48.6,0,28.7,0,21.8,0
2004/6/3 17:44,28.9,0,37,0,26.8,0,48.7,0,28.8,0,21.8,0
2004/6/3 17:59,28.3,0,37,0,26.8,0,48.8,0,28.9,0,21.9,0
2004/6/3 18:14,27.4,0,44,0,26.9,0,48.9,0,29,0,21.9,0
2004/6/3 18:29,27.2,0,45,0,26.9,0,49.1,0,29,0,22,0
2004/6/3 18:44,26.6,0,49,0,26.9,0,49.4,0,29.1,0,22,0
2004/6/3 18:59,25.8,0,54,0,26.9,0,49.6,0,29.1,0,22,0
2004/6/3 19:14,24.8,0,60,0,26.9,0,49.7,0,29.1,0,22.1,0
2004/6/3 19:29,24.3,0,64,0,26.9,0,50,0,29.1,0,22.1,0
2004/6/3 19:44,23.9,0,67,0,26.9,0,50.3,0,29,0,22.2,0
2004/6/3 19:59,24,0,68,0,26.8,0,50.6,0,29,0,22.2,0
2004/6/3 20:14,23.8,0,70,0,26.8,0,50.9,0,29,0,22.2,0
2004/6/3 20:29,23.7,0,66,0,27.1,0,51,0,28.9,0,21.3,0
2004/6/3 20:44,23.2,0,66,0,26.7,0,52.6,0,28.7,0,21.3,0
2004/6/3 20:59,23.1,0,66,0,26.5,0,53,0,28.5,0,21.3,0
2004/6/3 21:14,22.7,0,64,0,26.4,0,53.1,0,28.5,0,21.3,0
2004/6/3 21:29,22.4,0,64,0,26.3,0,53.1,0,28.4,0,21.4,0
2004/6/3 21:44,22,0,67,0,26.4,0,52.2,0,28.3,0,21.4,0
2004/6/3 21:59,22,0,66,0,26.5,0,52,0,28.2,0,21.4,0
2004/6/3 22:14,21.8,0,66,0,26.5,0,51.9,0,28.1,0,21.5,0
2004/6/3 22:29,21.6,0,68,0,26.5,0,51.4,0,28,0,21.5,0
2004/6/3 22:44,21.1,0,70,0,26.3,0,52.1,0,27.9,0,21.5,0
2004/6/3 22:59,20.9,0,71,0,26.1,0,52.3,0,27.9,0,21.6,0
2004/6/3 23:14,20.7,0,70,0,26,0,51.9,0,27.8,0,21.4,0
2004/6/3 23:29,20.7,0,70,0,26,0,51.5,0,27.7,0,21.4,0
2004/6/3 23:44,20.6,0,71,0,26,0,50.8,0,27.5,0,21.5,0
2004/6/3 23:59,20.7,0,70,0,25.9,0,51.2,0,27.5,0,21.4,0
2004/6/4 0:14,20.4,0,70,0,25.9,0,51.4,0,27.4,0,21.4,0
2004/6/4 0:29,20.3,0,70,0,26,0,51,0,27.3,0,21.4,0
2004/6/4 0:44,20,0,72,0,26.1,0,50.7,0,27.2,0,21.4,0
2004/6/4 0:59,20.2,0,69,0,26.1,0,50.8,0,27.1,0,21.5,0
2004/6/4 1:14,20.2,0,68,0,26.2,0,50.5,0,27,0,21.6,0
2004/6/4 1:29,19.6,0,71,0,26.2,0,50.1,0,27,0,21.6,0
2004/6/4 1:44,19.7,0,70,0,26.2,0,49.8,0,26.8,0,21.6,0
2004/6/4 1:59,19.5,0,71,0,26.1,0,49.4,0,26.8,0,21.6,0
2004/6/4 2:14,19.3,0,73,0,26.1,0,49.7,0,26.7,0,21.7,0
2004/6/4 2:29,19,0,75,0,26,0,49.7,0,26.6,0,21.7,0
2004/6/4 2:44,19,0,73,0,26,0,49.6,0,26.6,0,21.7,0
2004/6/4 2:59,19,0,73,0,25.9,0,49.7,0,26.5,0,21.7,0
2004/6/4 3:14,18.5,0,75,0,25.8,0,49.5,0,26.5,0,21.8,0
2004/6/4 3:29,18.4,0,75,0,25.7,0,49.4,0,26.4,0,21.8,0
2004/6/4 3:44,18.4,0,75,0,25.7,0,49.3,0,26.3,0,21.8,0
2004/6/4 3:59,18.4,0,74,0,25.6,0,49.1,0,26.2,0,21.8,0
2004/6/4 4:14,18.3,0,75,0,25.5,0,49.1,0,26.2,0,21.8,0
2004/6/4 4:29,17.9,0,77,0,25.5,0,49.1,0,26.1,0,21.9,0
2004/6/4 4:44,17.9,0,77,0,25.4,0,49.2,0,26,0,21.9,0
2004/6/4 4:59,17.8,0,78,0,25.3,0,49.1,0,25.9,0,21.9,0
2004/6/4 5:14,17.9,0,78,0,25.3,0,49.2,0,25.9,0,21.9,0
2004/6/4 5:29,17.7,0,79,0,25.2,0,49.2,0,25.8,0,21.9,0
2004/6/4 5:44,17.8,0,80,0,25.2,0,49.2,0,25.7,0,22,0
2004/6/4 5:59,18.2,0,77,0,25.1,0,49.2,0,25.7,0,22,0
2004/6/4 6:14,18.7,0,75,0,25.1,0,49.2,0,25.6,0,22,0
2004/6/4 6:29,19.2,0,74,0,25.1,0,49.3,0,25.5,0,22,0
2004/6/4 6:44,19.6,0,72,0,25.1,0,49.2,0,25.5,0,22,0
2004/6/4 6:59,20.2,0,72,0,25.1,0,49.2,0,25.5,0,22,0
2004/6/4 7:14,20.9,0,69,0,25.2,0,49.3,0,25.5,0,22,0
2004/6/4 7:29,21.4,0,67,0,25.2,0,49.3,0,25.5,0,21.7,0
2004/6/4 7:44,22.5,0,61,0,25.3,0,49.4,0,25.5,0,21.6,0
2004/6/4 7:59,23.2,0,58,0,25.5,0,49.6,0,25.5,0,21.6,0
2004/6/4 8:14,23.7,0,55,0,25.5,0,49.8,0,25.6,0,21.6,0
2004/6/4 8:29,24.2,0,52,0,25.6,0,49.9,0,25.6,0,21.6,0
2004/6/4 8:44,24.7,0,50,0,25.7,0,49.9,0,25.7,0,21.6,0
2004/6/4 8:59,25.1,0,49,0,25.7,0,49.7,0,25.8,0,21.6,0
2004/6/4 9:14,25.8,0,46,0,25.8,0,49.7,0,25.9,0,21.7,0
2004/6/4 9:29,26.1,0,44,0,25.9,0,49.6,0,25.9,0,21.7,0
2004/6/4 9:44,26.6,0,41,0,25.9,0,49.5,0,26,0,21.7,0
2004/6/4 9:59,27.2,0,42,0,26,0,49.4,0,26.1,0,21.7,0
2004/6/4 10:14,27.7,0,39,0,26.1,0,49.3,0,26.2,0,21.7,0
2004/6/4 10:29,28.2,0,36,0,26.1,0,49.4,0,26.4,0,21.8,0
2004/6/4 10:44,29.2,0,31,0,26.2,0,49.2,0,26.5,0,21.8,0
2004/6/4 10:59,29.7,0,29,0,26.2,0,49.1,0,26.7,0,21.8,0
2004/6/4 11:14,30.3,0,32,0,26.2,0,48.7,0,26.8,0,21.8,0
2004/6/4 11:29,30.6,0,27,0,26.2,0,48.2,0,26.9,0,21.8,0
2004/6/4 11:44,30.5,0,24,0,26.3,0,48.3,0,27.1,0,21.9,0
2004/6/4 11:59,30.3,0,38,0,26.4,0,48.3,0,27.2,0,21.9,0
2004/6/4 12:14,30.7,0,36,0,26.4,0,48.3,0,27.4,0,21.9,0
2004/6/4 12:29,31.4,0,37,0,26.5,0,48.4,0,27.5,0,21.9,0
2004/6/4 12:44,31.4,0,34,0,26.5,0,48.6,0,27.7,0,21.9,0
2004/6/4 12:59,32.9,0,29,0,26.6,0,48.6,0,27.8,0,22,0
2004/6/4 13:14,33.3,0,14,0,26.7,0,48.6,0,28,0,22,0
2004/6/4 13:29,33.5,0,15,0,26.8,0,48.3,0,28.1,0,22,0
2004/6/4 13:44,33.8,0,16,0,26.8,0,48.2,0,28.3,0,22,0
2004/6/4 13:59,34.8,0,14,0,26.9,0,47.7,0,28.4,0,22.1,0
2004/6/4 14:14,35.4,0,14,0,27,0,47.5,0,28.5,0,22.1,0
2004/6/4 14:29,36,0,16,0,27.1,0,47.3,0,28.7,0,22.1,0
2004/6/4 14:44,36.4,0,16,0,27.2,0,47.3,0,28.8,0,22.2,0
2004/6/4 14:59,35.1,0,16,0,27.3,0,47.1,0,29,0,22.2,0
2004/6/4 15:14,34.9,0,17,0,27.4,0,46.9,0,29.1,0,22.2,0
2004/6/4 15:29,34,0,17,0,27.5,0,46.5,0,29.2,0,22.3,0
2004/6/4 15:44,34.1,0,21,0,27.6,0,46.7,0,29.4,0,22.3,0
2004/6/4 15:59,33.1,0,24,0,27.7,0,46.6,0,29.5,0,22.3,0
2004/6/4 16:14,32.2,0,25,0,27.7,0,46.5,0,29.6,0,22.4,0
2004/6/4 16:29,32.1,0,27,0,27.9,0,46.7,0,29.8,0,22.4,0
2004/6/4 16:44,31.8,0,29,0,27.9,0,46.9,0,29.9,0,22.5,0
2004/6/4 16:59,32.4,0,28,0,28,0,47,0,30.1,0,22.5,0
2004/6/4 17:14,31.9,0,30,0,28.1,0,46.9,0,30.2,0,22.5,0
2004/6/4 17:29,30.8,0,32,0,28.1,0,46.9,0,30.4,0,22.6,0
2004/6/4 17:44,30.2,0,33,0,28.2,0,47,0,30.5,0,22.7,0
2004/6/4 17:59,29.7,0,34,0,28.2,0,47.1,0,30.6,0,22.7,0
2004/6/4 18:14,29.2,0,34,0,28.2,0,47.2,0,30.7,0,22.8,0
2004/6/4 18:29,28.7,0,35,0,28.2,0,47.3,0,30.7,0,22.8,0
2004/6/4 18:44,28,0,36,0,28.2,0,47.2,0,30.7,0,22.8,0
2004/6/4 18:59,27.8,0,37,0,28.2,0,47.2,0,30.7,0,22.9,0
2004/6/4 19:14,27.6,0,36,0,28.2,0,47,0,30.7,0,22.7,0
2004/6/4 19:29,27.4,0,38,0,28.2,0,46.9,0,30.6,0,22.7,0
2004/6/4 19:44,27,0,39,0,28.1,0,46.9,0,30.6,0,22.8,0
2004/6/4 19:59,26.6,0,43,0,28.1,0,46.7,0,30.5,0,22.8,0
2004/6/4 20:14,26.4,0,43,0,28.1,0,46.4,0,30.5,0,22.4,0
2004/6/4 20:29,25.8,0,45,0,28.1,0,45.4,0,30.2,0,22.4,0
2004/6/4 20:44,24.6,0,52,0,28,0,44,0,30.1,0,22.4,0
2004/6/4 20:59,24.5,0,53,0,28,0,44.1,0,30,0,22.5,0
2004/6/4 21:14,24.2,0,50,0,27.9,0,44.3,0,29.9,0,22.5,0
2004/6/4 21:29,24,0,50,0,27.9,0,43.2,0,29.8,0,22.6,0
2004/6/4 21:44,23.8,0,50,0,27.3,0,43.1,0,29.6,0,22.6,0
2004/6/4 21:59,24.3,0,45,0,27.2,0,45.1,0,29.5,0,22.7,0
2004/6/4 22:14,24.5,0,42,0,27.2,0,44.9,0,29.4,0,22.7,0
2004/6/4 22:29,24.4,0,41,0,26.8,0,47.4,0,29.3,0,22.7,0
2004/6/4 22:44,24.2,0,40,0,26.9,0,47.8,0,29.1,0,22.8,0
2004/6/4 22:59,24,0,40,0,27,0,47.8,0,29,0,22.8,0
2004/6/4 23:14,23.3,0,46,0,27,0,47.9,0,28.8,0,22.8,0
2004/6/4 23:29,22.9,0,46,0,27,0,48.1,0,28.7,0,22.9,0
2004/6/4 23:44,22.7,0,46,0,26.9,0,48.3,0,28.6,0,22.9,0
2004/6/4 23:59,22.5,0,47,0,26.8,0,48.4,0,28.5,0,22.8,0
2004/6/5 0:14,22.3,0,47,0,26.8,0,48.4,0,28.4,0,22.8,0
2004/6/5 0:29,22,0,48,0,26.5,0,46.4,0,28.3,0,22.2,0
2004/6/5 0:44,21.6,0,49,0,26.5,0,43.2,0,28.2,0,22.3,0
2004/6/5 0:59,21.6,0,49,0,27,0,42.7,0,28.1,0,22.3,0
2004/6/5 1:14,21.4,0,50,0,26.9,0,43,0,28,0,22.3,0
2004/6/5 1:29,21,0,51,0,26.8,0,43.2,0,28,0,22.4,0
2004/6/5 1:44,21,0,52,0,26.8,0,43.3,0,27.9,0,22.4,0
2004/6/5 1:59,20.9,0,54,0,26.7,0,43.4,0,27.9,0,22.4,0
2004/6/5 2:14,21,0,54,0,26.6,0,43.6,0,27.9,0,22.4,0
2004/6/5 2:29,20.9,0,55,0,26.6,0,43.7,0,27.8,0,22.5,0
2004/6/5 2:44,20.7,0,56,0,26.6,0,43.7,0,27.7,0,22.5,0
2004/6/5 2:59,20.5,0,57,0,26.5,0,43.8,0,27.7,0,22.5,0
2004/6/5 3:14,20.3,0,58,0,26.5,0,43.7,0,27.6,0,22.5,0
2004/6/5 3:29,19.7,0,56,0,26.4,0,43.7,0,27.5,0,22.6,0
2004/6/5 3:44,18.9,0,60,0,26.4,0,43.8,0,27.5,0,22.6,0
2004/6/5 3:59,19.2,0,58,0,26.3,0,43.7,0,27.4,0,22.6,0
2004/6/5 4:14,19.1,0,59,0,26.2,0,43.5,0,27.3,0,22.6,0
2004/6/5 4:29,19,0,61,0,26.2,0,43.6,0,27.2,0,22.6,0
2004/6/5 4:44,18.5,0,62,0,26.2,0,43.5,0,27.2,0,22.7,0
2004/6/5 4:59,18.7,0,59,0,26.1,0,43.5,0,27.1,0,22.7,0
2004/6/5 5:14,18.4,0,62,0,26,0,43.4,0,27,0,22.7,0
2004/6/5 5:29,18.5,0,61,0,26,0,43.5,0,26.9,0,22.7,0
2004/6/5 5:44,18.4,0,62,0,25.9,0,43.4,0,26.9,0,22.7,0
2004/6/5 5:59,18.5,0,61,0,25.9,0,43.4,0,26.8,0,22.7,0
2004/6/5 6:14,18.9,0,61,0,25.9,0,43.3,0,26.7,0,22.8,0
2004/6/5 6:29,19.3,0,59,0,25.8,0,43.4,0,26.7,0,22.8,0
2004/6/5 6:44,20,0,59,0,25.9,0,43.5,0,26.6,0,22.8,0
2004/6/5 6:59,20.4,0,57,0,25.9,0,43.8,0,26.6,0,22.8,0
2004/6/5 7:14,20.6,0,56,0,26,0,43.7,0,26.6,0,22.8,0
2004/6/5 7:29,21.3,0,51,0,26,0,43.7,0,26.6,0,22.8,0
2004/6/5 7:44,21.9,0,49,0,26.1,0,43.9,0,26.6,0,22.8,0
2004/6/5 7:59,22.7,0,48,0,26.2,0,43.7,0,26.6,0,22.8,0
2004/6/5 8:14,23,0,48,0,26.3,0,43.7,0,26.7,0,22.8,0
2004/6/5 8:29,23.7,0,47,0,26.3,0,43.6,0,26.7,0,22.9,0
2004/6/5 8:44,24.1,0,46,0,26.4,0,43.4,0,26.8,0,22.9,0
2004/6/5 8:59,24.6,0,47,0,26.5,0,43.4,0,26.8,0,22.9,0
2004/6/5 9:14,24.8,0,47,0,26.6,0,43.3,0,26.9,0,22.9,0
2004/6/5 9:29,25.2,0,49,0,26.6,0,43.6,0,27,0,22.9,0
2004/6/5 9:44,25.7,0,46,0,26.6,0,43.6,0,27.1,0,22.9,0
2004/6/5 9:59,26.4,0,46,0,26.7,0,43.7,0,27.1,0,22.9,0
2004/6/5 10:14,26.7,0,45,0,26.8,0,43.7,0,27.2,0,22.9,0
2004/6/5 10:29,27.2,0,45,0,26.8,0,43.9,0,27.3,0,22.9,0
2004/6/5 10:44,27.6,0,45,0,26.8,0,43.9,0,27.4,0,22.9,0
2004/6/5 10:59,28.2,0,44,0,26.8,0,44.2,0,27.5,0,23,0
2004/6/5 11:14,29,0,43,0,26.9,0,44.5,0,27.7,0,23,0
2004/6/5 11:29,29.2,0,43,0,26.9,0,44.7,0,27.8,0,23,0
2004/6/5 11:44,29.4,0,43,0,27,0,44.8,0,27.9,0,23,0
2004/6/5 11:59,29.5,0,41,0,27,0,44.8,0,28,0,23,0
2004/6/5 12:14,30,0,40,0,27.1,0,45.3,0,28.2,0,23,0
2004/6/5 12:29,30,0,39,0,27.2,0,45.4,0,28.3,0,23,0
2004/6/5 12:44,30,0,39,0,27.3,0,45.5,0,28.4,0,23,0
2004/6/5 12:59,31.3,0,37,0,27.4,0,45.5,0,28.5,0,23.1,0